Durango, CO

8:01 AM MDT on March 25, 2017 (GMT -0600)
Durango-La Plata County

Weather History for KDRO - April, 2014

Change the Weather History Date:

Thursday, April 17, 2014

  Actual Average Record
Temperature  
Mean Temperature 45 °F 45 °F  
Max Temperature 65 °F 61 °F 79 °F (1989)
Min Temperature 24 °F 29 °F 19 °F (2008)
Degree Days  
Heating Degree Days 20 20  
Month to date heating degree days 375 369  
Since 1 July heating degree days 6122 6398  
Cooling Degree Days 0 0  
Month to date cooling degree days 0 0  
Year to date cooling degree days 0 0  
Moisture  
Dew Point 18 °F    
Average Humidity 42    
Maximum Humidity 69    
Minimum Humidity 15    
Precipitation  
Precipitation 0.00 in 0.04 in 0.16 in (1976)
Month to date precipitation 0.05 0.70  
Year to date precipitation 1.58 4.23  
Sea Level Pressure  
Sea Level Pressure 30.03 in    
Wind  
Wind Speed 6 mph (NW)    
Max Wind Speed 20 mph    
Max Gust Speed 27 mph    
Visibility 10 miles    
Events      
T = Trace of Precipitation, MM = Missing Value Source: NWS Daily Summary

Daily Weather History Graph

Daily Weather History Graph

Search for Another Location

Airport or City:

Trip Planner

Search our weather history database for the weather conditions in past years. The results will help you decide how hot, cold, wet, or windy it might be!

Date:

Astronomy

Apr. 17, 2014 Rise Set
Actual Time 6:33 AM MDT 7:47 PM MDT
Civil Twilight 6:06 AM MDT 8:14 PM MDT
Nautical Twilight 5:34 AM MDT 8:47 PM MDT
Astronomical Twilight 5:01 AM MDT 9:20 PM MDT
Moon 10:33 PM MDT (4/17) 8:10 AM MDT (4/17)
Length of Visible Light 14h 08m
Length of Day
13h 14m
Waning Gibbous, 93% of the Moon is Illuminated
Apr 17
Waning Gibbous
Apr 22
Last Quarter
Apr 29
New
May 6
First Quarter
May 14
Full

Hourly Weather History & Observations

Time (MDT) Temp. Windchill Dew Point Humidity Pressure Visibility Wind Dir Wind Speed Gust Speed Precip Events Conditions
12:53 AM 37.9 °F 32.7 °F 21.9 °F 53% 29.88 in 10.0 mi NNW 6.9 mph - N/A   Clear
1:53 AM 39.9 °F - 21.9 °F 49% 29.89 in 10.0 mi Calm Calm - N/A   Clear
2:53 AM 33.1 °F 26.9 °F 19.9 °F 59% 29.94 in 10.0 mi North 6.9 mph - N/A   Clear
3:53 AM 30.0 °F 24.1 °F 19.9 °F 66% 29.99 in 10.0 mi NNE 5.8 mph - N/A   Clear
4:53 AM 28.0 °F - 19.0 °F 69% 30.01 in 10.0 mi Calm Calm - N/A   Clear
5:53 AM 26.1 °F - 17.1 °F 69% 30.05 in 10.0 mi Calm Calm - N/A   Clear
6:53 AM 27.0 °F 21.6 °F 18.0 °F 69% 30.08 in 10.0 mi NNE 4.6 mph - N/A   Clear
7:53 AM 30.9 °F 26.2 °F 19.0 °F 61% 30.10 in 10.0 mi ENE 4.6 mph - N/A   Clear
8:53 AM 42.1 °F - 21.0 °F 43% 30.09 in 10.0 mi Calm Calm - N/A   Clear
9:53 AM 48.9 °F - 19.9 °F 32% 30.08 in 10.0 mi Calm Calm - N/A   Clear
11:53 AM 54.0 °F - 19.0 °F 25% 30.08 in 10.0 mi Variable 4.6 mph - N/A   Clear
12:53 PM 57.9 °F - 18.0 °F 21% 30.05 in 10.0 mi Variable 3.5 mph - N/A   Clear
1:53 PM 60.1 °F - 15.1 °F 17% 30.01 in 10.0 mi Variable 3.5 mph - N/A   Clear
2:53 PM 62.1 °F - 16.0 °F 17% 30.01 in 10.0 mi WSW 8.1 mph 23.0 mph N/A   Clear
3:53 PM 63.0 °F - 17.1 °F 17% 30.01 in 10.0 mi SW 12.7 mph 21.9 mph N/A   Clear
4:53 PM 64.0 °F - 16.0 °F 16% 30.01 in 10.0 mi WSW 9.2 mph - N/A   Clear
5:53 PM 63.0 °F - 15.1 °F 16% 30.02 in 10.0 mi SW 15.0 mph 24.2 mph N/A   Clear
6:53 PM 61.0 °F - 14.0 °F 16% 30.03 in 10.0 mi SW 15.0 mph - N/A   Clear
7:53 PM 55.9 °F - 15.1 °F 20% 30.05 in 10.0 mi SW 9.2 mph - N/A   Clear
8:53 PM 52.0 °F - 16.0 °F 24% 30.04 in 10.0 mi WSW 6.9 mph - N/A   Clear
9:53 PM 42.1 °F 38.4 °F 16.0 °F 35% 30.07 in 10.0 mi NE 5.8 mph - N/A   Clear
10:53 PM 43.0 °F 41.3 °F 18.0 °F 37% 30.06 in 10.0 mi NNE 3.5 mph - N/A   Clear
11:53 PM 39.0 °F 36.8 °F 17.1 °F 41% 30.09 in 10.0 mi NNE 3.5 mph - N/A   Clear